Погода в Макади-Бэй

Египет     26°59′04″N   33°53′12″E
темп.,
°C
ветер,
м/с
пор.,
м/с
влажн.,
%
обл.,
%
осадки,
мм/ч
давл.,
гПа
погр.,
м
11 мая, вт
вт1123:00+29сз811465 0.0 1006102
02:00+27ссз915632 0.0 1005231
05:00+25ссз11166634 0.0 1007307
08:00+25ссз913650 0.0 1008310
11:00+25с911720 0.0 1008202
14:00+25с69710 0.0 1006160
17:00+26ссз44680 0.0 100662
20:00+27зсз44560 0.0 100734
12 мая, ср
ср1223:00+27сз612510 0.0 1007132
02:00+27сз44530 0.0 100644
05:00+25ссз811690 0.0 1008275
08:00+25ссз79670 0.0 1009250
11:00+25с79720 0.0 1008183
14:00+25ссв46700 0.0 1006148
17:00+26ссз33650 0.0 100657
20:00+28зсз33520 0.0 100714
13 мая, чт
чт1323:00+27сз814420 0.0 1007187
02:00+27ссз813480 0.0 1007232
05:00+25ссз812650 0.0 1009357
08:00+25ссз911620 0.0 1010393
11:00+24с78690 0.0 1010221
14:00+25с79710 0.0 1008199
17:00+26ссз57660 0.0 1007152
20:00+27сз612540 0.0 1009174
14 мая, пт
пт1423:00+28сз914370 0.0 1009187
02:00+27ссз813460 0.0 1008236
05:00+25ссз913530 0.0 1009330
08:00+26ссз912470 0.0 1011338
11:00+25с911630 0.0 1011213
14:00+25с79670 0.0 1009163
17:00+26ссз813630 0.0 1008172
20:00+28ссз69540 0.0 100894
15 мая, сб
сб1523:00+29сз1217390 0.0 1009284
02:00+27сз1017440 0.0 1008387
05:00+26ссз1016490 0.0 1008456
08:00+26ссз1014460 0.0 1009314
11:00+25с1113640 0.0 1009238
14:00+25с1013640 0.0 1007220
17:00+27ссз1016570 0.0 1005183
20:00+28сз915450 0.0 1006184